Terug naar catalogus

KUIPER-00138

ActiefCommunicatieLEO
NORAD 65964·PAYLOAD·🇺🇸 United States

Gelanceerd Oct 14, 2025 vanaf Cape Canaveral Space Force Station

Loading…

Volgende Passages (komende 24 uur)

TLE

VersSource: CelesTrak SupGP

Epoch: Sep 14, 2026, 22:01 UTC

1 65964C 25228T   26257.91775463 -.00015677  00000+0 -20523-2 0  2571
2 65964  51.8972 226.2964 0000816  62.4028  37.3700 14.79944523    11

Volg KUIPER-00138 in realtime met AllMySat

Download on the App Store